Wilmington, NC

3:52 AM EDT on July 23, 2017 (GMT -0400)
Wilmington International

Weather History for KILM - January, 2013

Change the Weather History Date:

Saturday, January 26, 2013

  Actual Average Record
Temperature  
Mean Temperature 40 °F 46 °F  
Max Temperature 50 °F 57 °F 79 °F (1950)
Min Temperature 29 °F 36 °F 18 °F (1940)
Degree Days  
Heating Degree Days 25 19  
Month to date heating degree days 389 494  
Since 1 July heating degree days 1267 1378  
Cooling Degree Days 0 0  
Month to date cooling degree days 8 0  
Year to date cooling degree days 8 0  
Moisture  
Dew Point 30 °F    
Average Humidity 73    
Maximum Humidity 92    
Minimum Humidity 54    
Precipitation  
Precipitation T in 0.12 in 1.56 in (2004)
Month to date precipitation 1.95 3.13  
Year to date precipitation 1.95 3.13  
Snow  
Snow 0.00 in 0.00 in 1.00 in (1927)
Month to date snowfall 0.0 0.3  
Since 1 July snowfall 0.0 1.1  
Snow Depth 0.00 in    
Sea Level Pressure  
Sea Level Pressure 30.22 in    
Wind  
Wind Speed 6 mph (North)    
Max Wind Speed 12 mph    
Max Gust Speed 16 mph    
Visibility 9 miles    
Events      
T = Trace of Precipitation, MM = Missing Value Source: NWS Daily Summary

Daily Weather History Graph

Daily Weather History Graph

Search for Another Location

Airport or City:

Trip Planner

Search our weather history database for the weather conditions in past years. The results will help you decide how hot, cold, wet, or windy it might be!

Date:

Astronomy

Jan. 26, 2013 Rise Set
Actual Time 7:12 AM EST 5:35 PM EST
Civil Twilight 6:46 AM EST 6:02 PM EST
Nautical Twilight 6:15 AM EST 6:32 PM EST
Astronomical Twilight 5:46 AM EST 7:02 PM EST
Moon 5:26 PM EST (1/26) 6:30 AM EST (1/26)
Length of Visible Light 11h 16m
Length of Day
10h 23m
Full, 100% of the Moon is Illuminated
Jan 26
Full
Jan 26
Full
Feb 3
Last Quarter
Feb 10
New
Feb 17
First Quarter

Hourly Weather History & Observations

Time (EST) Temp. Windchill Dew Point Humidity Pressure Visibility Wind Dir Wind Speed Gust Speed Precip Events Conditions
12:53 AM 33.1 °F 27.7 °F 28.9 °F 85% 30.14 in 7.0 mi West 5.8 mph - 0.00 in   Overcast
1:53 AM 34.0 °F 28.8 °F 30.0 °F 85% 30.14 in 8.0 mi NW 5.8 mph - N/A   Overcast
2:53 AM 33.1 °F 30.0 °F 28.9 °F 85% 30.13 in 7.0 mi North 3.5 mph - N/A   Mostly Cloudy
3:53 AM 33.1 °F 28.7 °F 28.9 °F 85% 30.13 in 7.0 mi North 4.6 mph - N/A   Mostly Cloudy
4:15 AM 33.8 °F 29.6 °F 28.4 °F 81% 30.13 in 8.0 mi NNW 4.6 mph - N/A   Overcast
4:53 AM 33.1 °F 28.7 °F 27.0 °F 78% 30.13 in 10.0 mi NNW 4.6 mph - N/A   Overcast
5:53 AM 34.0 °F 29.8 °F 27.0 °F 75% 30.15 in 10.0 mi NW 4.6 mph - N/A   Overcast
6:53 AM 34.0 °F 28.0 °F 27.0 °F 75% 30.16 in 10.0 mi NNW 6.9 mph - N/A   Overcast
7:28 AM 33.8 °F 27.7 °F 26.6 °F 75% 30.16 in 10.0 mi North 6.9 mph - N/A   Overcast
7:53 AM 34.0 °F 28.0 °F 27.0 °F 75% 30.16 in 10.0 mi North 6.9 mph - N/A   Overcast
8:53 AM 36.0 °F 33.3 °F 27.0 °F 70% 30.20 in 10.0 mi NW 3.5 mph - N/A   Clear
9:53 AM 37.9 °F 33.5 °F 28.9 °F 70% 30.22 in 10.0 mi NW 5.8 mph - N/A   Clear
10:53 AM 42.1 °F 37.7 °F 30.9 °F 65% 30.23 in 10.0 mi NW 6.9 mph - N/A   Clear
11:53 AM 46.9 °F - 33.1 °F 59% 30.22 in 10.0 mi North 9.2 mph - N/A   Clear
12:53 PM 46.9 °F - 34.0 °F 61% 30.22 in 10.0 mi North 8.1 mph - N/A   Clear
1:53 PM 48.0 °F - 35.1 °F 61% 30.20 in 10.0 mi NNW 5.8 mph - N/A   Clear
2:53 PM 48.9 °F - 33.1 °F 54% 30.20 in 10.0 mi NNE 5.8 mph - N/A   Clear
3:53 PM 48.0 °F - 32.0 °F 54% 30.23 in 10.0 mi North 9.2 mph - N/A   Clear
4:53 PM 44.1 °F 40.1 °F 33.1 °F 65% 30.25 in 10.0 mi North 6.9 mph - N/A   Clear
5:53 PM 41.0 °F 36.4 °F 30.0 °F 65% 30.27 in 10.0 mi North 6.9 mph - N/A   Clear
6:53 PM 37.0 °F 31.6 °F 30.0 °F 76% 30.29 in 10.0 mi North 6.9 mph - N/A   Clear
7:53 PM 35.1 °F 28.6 °F 30.0 °F 82% 30.32 in 7.0 mi NNE 8.1 mph - N/A   Clear
8:53 PM 32.0 °F 24.8 °F 28.4 °F 87% 30.34 in 5.0 mi NNE 8.1 mph - N/A   Clear
9:53 PM 30.9 °F 23.5 °F 28.0 °F 89% 30.36 in 4.0 mi NNE 8.1 mph - N/A   Clear
10:53 PM 30.9 °F 24.3 °F 28.0 °F 89% 30.38 in 5.0 mi NNE 6.9 mph - N/A   Clear
11:53 PM 28.9 °F 22.8 °F 26.1 °F 89% 30.39 in 5.0 mi NNE 5.8 mph - N/A   Clear